Date String (YYYY-MM-DD hh:mm:ss) UTC,Instrument flags,Ambient pressure (hPa),Sample flow (lpm),Bypass flow (lpm),Sample temperature (°C),Ambient temperature (°C),ASC tube jacket temperature (°C),LED temperature (°C),Box temperature (°C),Sample RH (%),Span deviation,Mass concentration (μg/m³),Mass concentration (μg/m³),Mass concentration (μg/m³)
DateTimeUTC,F1_M11,P_M11,Q1_M11,Q2_M11,T1_M11,T2_M11,T3_M11,T4_M11,T5_M11,U1_M11,ZSPAN_M11,X0_M11,X2_M11,X1_M11
2022-08-16 23:00:00,,0831.5,5.01,0.00,31.1,27.9,00.0,39.5,31.9,34.1,0000.0,0011.18,0005.78,0005.12
2022-08-16 23:01:00,,0831.4,4.99,0.00,31.0,28.0,00.0,39.5,31.9,34.4,0000.0,0011.05,0005.73,0005.10
2022-08-16 23:02:00,,0831.4,5.01,0.00,31.0,28.1,00.0,39.5,31.9,34.4,0000.0,0010.93,0005.70,0005.08
2022-08-16 23:03:00,,0831.4,5.00,0.00,30.9,28.3,00.0,39.4,32.0,34.0,0000.0,0010.99,0005.68,0005.06
2022-08-16 23:04:00,,0831.4,5.00,0.00,30.9,28.4,00.0,39.4,32.0,34.5,0000.0,0010.95,0005.65,0005.03
2022-08-16 23:05:00,,0831.5,5.00,0.00,30.9,28.5,00.0,39.4,32.0,34.6,0000.0,0011.03,0005.62,0005.04
2022-08-16 23:06:00,,0831.4,5.00,0.00,30.9,28.6,00.0,39.4,32.0,34.6,0000.0,0010.89,0005.59,0005.03
2022-08-16 23:07:00,,0831.4,4.99,0.00,30.9,28.6,00.0,39.4,32.0,34.7,0000.0,0010.03,0005.59,0005.03
2022-08-16 23:08:00,,0831.5,5.00,0.00,30.9,28.7,00.0,39.4,32.1,34.5,0000.0,0009.26,0005.61,0005.03
2022-08-16 23:09:00,,0831.5,5.00,0.00,30.8,28.8,00.0,39.4,32.1,34.6,0000.0,0009.04,0005.60,0005.03
2022-08-16 23:10:00,,0831.4,4.99,0.00,30.8,28.8,00.0,39.4,32.1,34.8,0000.0,0009.05,0005.62,0005.02
2022-08-16 23:11:00,,0831.4,5.01,0.00,30.9,28.9,00.0,39.4,32.2,35.0,0000.0,0009.01,0005.61,0005.02
2022-08-16 23:12:00,,0831.4,5.01,0.00,31.0,28.9,00.0,39.4,32.2,34.8,0000.0,0009.08,0005.63,0005.01
2022-08-16 23:13:00,,0831.4,5.00,0.00,31.2,28.8,00.0,39.4,32.3,34.4,0000.0,0009.38,0005.65,0005.01
2022-08-16 23:14:00,,0831.3,4.99,0.00,31.2,28.3,00.0,39.3,32.1,34.6,0000.0,0009.51,0005.64,0005.00
2022-08-16 23:15:00,,0831.3,5.00,0.00,31.2,27.9,00.0,39.3,32.0,34.8,0000.0,0009.60,0005.65,0005.00
2022-08-16 23:16:00,,0831.3,5.00,0.00,31.1,27.8,00.0,39.3,31.8,34.6,0000.0,0009.40,0005.65,0004.98
2022-08-16 23:17:00,,0831.3,4.99,0.00,31.0,27.8,00.0,39.3,31.8,34.3,0000.0,0009.28,0005.61,0004.97
2022-08-16 23:18:00,,0831.3,5.01,0.00,31.0,27.9,00.0,39.3,31.9,34.3,0000.0,0009.25,0005.61,0004.97
2022-08-16 23:19:00,,0831.3,5.00,0.00,30.9,28.1,00.0,39.3,31.9,34.8,0000.0,0009.20,0005.58,0004.96
2022-08-16 23:20:00,,0831.3,5.00,0.00,31.0,28.2,00.0,39.3,32.0,35.2,0000.0,0009.12,0005.54,0004.94
2022-08-16 23:21:00,,0831.3,4.99,0.00,31.2,28.3,00.0,39.3,32.2,34.2,0000.0,0009.29,0005.53,0004.92
2022-08-16 23:22:00,,0831.3,5.00,0.00,31.3,28.4,00.0,39.3,32.2,34.2,0000.0,0009.33,0005.49,0004.90
2022-08-16 23:23:00,,0831.3,4.99,0.00,31.4,28.5,00.0,39.4,32.2,33.9,0000.0,0009.37,0005.48,0004.89
2022-08-16 23:24:00,,0831.3,5.01,0.00,31.4,28.6,00.0,39.4,32.2,34.5,0000.0,0009.25,0005.47,0004.88
2022-08-16 23:25:00,,0831.2,5.00,0.00,31.4,28.7,00.0,39.4,32.2,34.9,0000.0,0009.31,0005.54,0004.87
2022-08-16 23:26:00,,0831.2,4.98,0.00,31.5,28.8,00.0,39.5,32.2,34.6,0000.0,0009.26,0005.55,0004.86
2022-08-16 23:27:00,,0831.2,5.01,0.00,31.5,28.8,00.0,39.5,32.3,34.6,0000.0,0009.88,0005.55,0004.87
2022-08-16 23:28:00,,0831.1,5.00,0.00,31.5,28.9,00.0,39.5,32.3,34.6,0000.0,0010.09,0005.53,0004.86
2022-08-16 23:29:00,,0831.2,4.99,0.00,31.5,28.8,00.0,39.6,32.3,34.3,0000.0,0010.68,0005.53,0004.86
2022-08-16 23:30:00,,0831.2,5.01,0.00,31.5,28.2,00.0,39.5,32.1,34.5,0000.0,0010.83,0005.55,0004.86
2022-08-16 23:31:00,,0831.2,4.99,0.00,31.4,27.9,00.0,39.5,32.0,34.5,0000.0,0011.16,0005.59,0004.88
2022-08-16 23:32:00,,0831.2,5.00,0.00,31.3,27.8,00.0,39.5,32.0,34.6,0000.0,0010.94,0005.58,0004.90
2022-08-16 23:33:00,,0831.2,5.00,0.00,31.2,27.9,00.0,39.5,31.9,34.9,0000.0,0010.96,0005.60,0004.92
2022-08-16 23:34:00,,0831.2,4.99,0.00,31.2,28.0,00.0,39.5,32.0,35.2,0000.0,0010.98,0005.64,0004.95
2022-08-16 23:35:00,,0831.2,5.01,0.00,31.3,28.1,00.0,39.5,32.2,35.1,0000.0,0011.02,0005.67,0004.97
2022-08-16 23:36:00,,0831.1,4.99,0.00,31.6,28.2,00.0,39.5,32.3,34.6,0000.0,0010.72,0005.60,0004.98
2022-08-16 23:37:00,,0831.2,5.01,0.00,31.7,28.4,00.0,39.5,32.3,34.5,0000.0,0010.66,0005.57,0004.97
2022-08-16 23:38:00,,0831.1,4.98,0.00,31.7,28.5,00.0,39.6,32.3,34.5,0000.0,0010.16,0005.55,0004.98
2022-08-16 23:39:00,,0831.1,5.02,0.00,31.7,28.6,00.0,39.6,32.3,34.1,0000.0,0010.10,0005.57,0004.99
2022-08-16 23:40:00,,0831.2,4.99,0.00,31.7,28.7,00.0,39.6,32.3,34.1,0000.0,0009.63,0005.61,0005.00
2022-08-16 23:41:00,,0831.2,5.00,0.00,31.7,28.8,00.0,39.7,32.3,34.2,0000.0,0009.94,0005.65,0005.01
2022-08-16 23:42:00,,0831.2,4.99,0.00,31.7,28.8,00.0,39.7,32.3,33.9,0000.0,0010.05,0005.61,0005.00
2022-08-16 23:43:00,,0831.2,5.00,0.00,31.7,28.9,00.0,39.7,32.4,34.0,0000.0,0009.98,0005.60,0005.01
2022-08-16 23:44:00,,0831.2,5.02,0.00,31.6,28.8,00.0,39.8,32.3,34.4,0000.0,0010.01,0005.60,0005.01
2022-08-16 23:45:00,,0831.2,4.99,0.00,31.5,28.1,00.0,39.7,32.1,34.1,0000.0,0010.00,0005.61,0005.01
2022-08-16 23:46:00,,0831.2,5.01,0.00,31.4,27.6,00.0,39.7,31.9,34.4,0000.0,0009.86,0005.59,0005.02
2022-08-16 23:47:00,,0831.2,5.00,0.00,31.3,27.4,00.0,39.6,31.8,34.8,0000.0,0009.92,0005.62,0005.05
2022-08-16 23:48:00,,0831.1,5.00,0.00,31.2,27.4,00.0,39.6,31.8,35.5,0000.0,0010.09,0005.70,0005.09
2022-08-16 23:49:00,,0831.2,5.00,0.00,31.3,27.5,00.0,39.6,32.0,34.5,0000.0,0010.19,0005.73,0005.09
2022-08-16 23:50:00,,0831.2,5.00,0.00,31.5,27.7,00.0,39.5,32.0,34.0,0000.0,0009.96,0005.70,0005.08
2022-08-16 23:51:00,,0831.2,4.99,0.00,31.5,27.8,00.0,39.5,32.0,33.8,0000.0,0009.61,0005.62,0005.06
2022-08-16 23:52:00,,0831.2,5.00,0.00,31.5,28.0,00.0,39.5,32.1,34.0,0000.0,0009.40,0005.60,0005.05
2022-08-16 23:53:00,,0831.2,5.00,0.00,31.5,28.1,00.0,39.6,32.0,34.7,0000.0,0009.32,0005.63,0005.05
2022-08-16 23:54:00,,0831.2,4.99,0.00,31.4,28.3,00.0,39.6,32.1,35.0,0000.0,0009.42,0005.65,0005.04
2022-08-16 23:55:00,,0831.1,5.00,0.00,31.5,28.4,00.0,39.6,32.2,35.1,0000.0,0009.37,0005.65,0005.04
2022-08-16 23:56:00,,0831.2,4.99,0.00,31.6,28.5,00.0,39.6,32.3,34.5,0000.0,0009.37,0005.65,0005.05
2022-08-16 23:57:00,,0831.2,5.00,0.00,31.7,28.6,00.0,39.6,32.3,33.8,0000.0,0009.39,0005.64,0005.05
2022-08-16 23:58:00,,0831.2,4.99,0.00,31.8,28.7,00.0,39.7,32.3,33.6,0000.0,0009.46,0005.67,0005.04
2022-08-16 23:59:00,,0831.1,4.99,0.00,31.8,28.8,00.0,39.7,32.3,33.3,0000.0,0009.27,0005.62,0005.03
